This is the latest recevied weather packets stored in our database for station/object KM4KMS. If no packets are shown the sender has not sent any weather packets the latest 10 day(s).
| Time | Temp. | Humidity | Pressure | Rain* | Wind** | Luminosity | Snow |
|---|---|---|---|---|---|---|---|
| 1777586291 | 15.56° C | 45% | 1014.3 hPa | 0 mm | - | 313 W/m² | - |
| 1777585989 | 16.11° C | 44% | 1014.2 hPa | 0 mm | - | 340 W/m² | - |
| 1777585684 | 16.11° C | 43% | 1014.2 hPa | 0 mm | - | 360 W/m² | - |
| 1777585378 | 16.67° C | 44% | 1014.1 hPa | 0 mm | - | 371 W/m² | - |
| 1777585073 | 16.11° C | 40% | 1014 hPa | 0 mm | - | 358 W/m² | - |
| 1777584770 | 16.11° C | 42% | 1014.2 hPa | 0 mm | - | 386 W/m² | - |
| 1777584468 | 16.11° C | 41% | 1014.1 hPa | 0 mm | - | 424 W/m² | - |
| 1777584165 | 15.56° C | 46% | 1014.3 hPa | 0 mm | - | 409 W/m² | - |
| 1777583864 | 16.11° C | 46% | 1014.4 hPa | 0 mm | - | 406 W/m² | - |
| 1777583560 | 16.11° C | 42% | 1014.7 hPa | 0 mm | - | 427 W/m² | - |
| 1777583259 | 16.11° C | 42% | 1014.6 hPa | 0 mm | - | 433 W/m² | - |
| 1777582958 | 16.67° C | 43% | 1014.2 hPa | 0 mm | - | 419 W/m² | - |
| 1777582657 | 16.11° C | 46% | 1014.4 hPa | 0 mm | - | 426 W/m² | - |
| 1777582352 | 16.11° C | 44% | 1014.6 hPa | 0 mm | - | 426 W/m² | - |
| 1777582050 | 16.67° C | 44% | 1014.4 hPa | 0 mm | - | 454 W/m² | - |
| 1777581745 | 16.67° C | 43% | 1014.7 hPa | 0 mm | - | 501 W/m² | - |
| 1777581443 | 16.67° C | 43% | 1014.8 hPa | 0 mm | - | 514 W/m² | - |
| 1777581138 | 16.11° C | 43% | 1014.7 hPa | 0 mm | - | 478 W/m² | - |
| 1777580834 | 16.11° C | 44% | 1014.6 hPa | 0 mm | - | 487 W/m² | - |
| 1777580529 | 16.11° C | 44% | 1014.4 hPa | 0 mm | - | 515 W/m² | - |
| 1777580224 | 16.67° C | 44% | 1014.9 hPa | 0 mm | - | 523 W/m² | - |
| 1777579922 | 16.67° C | 41% | 1015 hPa | 0 mm | - | 544 W/m² | - |
| 1777579616 | 15.56° C | 49% | 1015 hPa | 0 mm | - | 572 W/m² | - |
| 1777579310 | 15.56° C | 46% | 1015.1 hPa | 0 mm | - | 601 W/m² | - |
| 1777579006 | 16.11° C | 46% | 1015.2 hPa | 0 mm | - | 630 W/m² | - |
* Rain latest hour (hover to see other rain measurements)
** Current wind speed in m/s (hover to see current wind gust speed)